Bloomington, IN

2:11 PM EST on December 10, 2016 (GMT -0500)
Monroe County

Weather History for KBMG - December, 2002

Change the Weather History Date:

Saturday, December 7, 2002

  Actual Average Record
Temperature  
Mean Temperature 29 °F 34 °F  
Max Temperature 37 °F 43 °F 61 °F (2004)
Min Temperature 21 °F 26 °F 4 °F (2008)
Degree Days  
Heating Degree Days 36 31  
Month to date heating degree days 206  
Since 1 July heating degree days 1262  
Cooling Degree Days 0 0  
Month to date cooling degree days 0  
Year to date cooling degree days 927  
Moisture  
Dew Point 27 °F    
Average Humidity 86    
Maximum Humidity 96    
Minimum Humidity 76    
Precipitation  
Precipitation 0.00 in 0.11 in 0.56 in (2004)
Month to date precipitation 0.74  
Year to date precipitation 44.75  
Sea Level Pressure  
Sea Level Pressure 30.19 in    
Wind  
Wind Speed 12 mph (SW)    
Max Wind Speed 16 mph    
Max Gust Speed 23 mph    
Visibility 5 miles    
Events      
T = Trace of Precipitation, MM = Missing Value Source: NWS Daily Summary

Daily Weather History Graph

Daily Weather History Graph

Search for Another Location

Airport or City:

Trip Planner

Search our weather history database for the weather conditions in past years. The results will help you decide how hot, cold, wet, or windy it might be!

Date:

Astronomy

Dec. 07, 2002 Rise Set
Actual Time 7:52 AM EST 5:23 PM EST
Civil Twilight 7:22 AM EST 5:53 PM EST
Nautical Twilight 6:49 AM EST 6:26 PM EST
Astronomical Twilight 6:16 AM EST 6:59 PM EST
Moon 11:17 AM EST (12/7) 8:47 PM EST (12/7)
Length of Visible Light 10h 30m
Length of Day
9h 31m
Waxing Crescent, 14% of the Moon is Illuminated
Dec 7
Waxing Crescent
Dec 11
First Quarter
Dec 19
Full
Dec 26
Last Quarter
Jan 2
New

Hourly Weather History & Observations

Time (EST) Temp. Windchill Dew Point Humidity Pressure Visibility Wind Dir Wind Speed Gust Speed Precip Events Conditions
12:53 AM 21.9 °F 12.5 °F 18.0 °F 85% 30.23 in 5.0 mi South 8.1 mph - N/A   Clear
1:53 AM 23.0 °F 12.4 °F 19.0 °F 85% 30.22 in 5.0 mi SSW 10.4 mph - N/A   Clear
2:53 AM 24.1 °F 13.1 °F 21.0 °F 88% 30.22 in 5.0 mi SW 11.5 mph - N/A   Clear
3:53 AM 25.0 °F 13.6 °F 21.9 °F 88% 30.22 in 4.0 mi SW 12.7 mph - N/A   Clear
4:53 AM 24.1 °F 12.0 °F 21.9 °F 91% 30.19 in 4.0 mi SSW 13.8 mph - N/A   Clear
5:46 AM 24.8 °F 11.9 °F 23.0 °F 93% 30.17 in 4.0 mi SW 16.1 mph - N/A   Partly Cloudy
5:53 AM 25.0 °F 13.6 °F 23.0 °F 92% 30.20 in 4.0 mi SW 12.7 mph - N/A   Scattered Clouds
6:04 AM 26.6 °F 14.7 °F 24.8 °F 93% 30.17 in 4.0 mi WSW 15.0 mph - N/A   Mostly Cloudy
6:53 AM 26.1 °F 14.0 °F 25.0 °F 96% 30.20 in 2.5 mi SW 15.0 mph 23.0 mph N/A   Overcast
7:35 AM 26.6 °F 14.7 °F 24.8 °F 93% 30.17 in 3.0 mi SW 15.0 mph - N/A   Overcast
7:53 AM 27.0 °F 15.6 °F 25.0 °F 92% 30.21 in 2.5 mi SW 13.8 mph - N/A   Mostly Cloudy
8:09 AM 26.6 °F 16.2 °F 24.8 °F 93% 30.18 in 2.0 mi SW 11.5 mph - N/A   Scattered Clouds
8:53 AM 27.0 °F 16.7 °F 25.0 °F 92% 30.22 in 2.5 mi SW 11.5 mph - N/A   Clear
9:01 AM 26.6 °F 15.7 °F 24.8 °F 93% 30.19 in 3.0 mi SW 12.7 mph - N/A   Clear
9:53 AM 28.9 °F 18.2 °F 26.1 °F 89% 30.22 in 4.0 mi SW 13.8 mph - N/A   Clear
10:53 AM 32.0 °F 22.1 °F 27.0 °F 82% 30.23 in 5.0 mi SW 13.8 mph 20.7 mph N/A   Haze
11:53 AM 33.1 °F 23.9 °F 28.0 °F 82% 30.22 in 5.0 mi SSW 12.7 mph - N/A   Haze
12:53 PM 35.1 °F 25.9 °F 28.9 °F 78% 30.19 in 6.0 mi SW 13.8 mph - N/A   Haze
1:53 PM 37.0 °F 28.5 °F 30.0 °F 76% 30.17 in 6.0 mi WSW 13.8 mph - N/A   Haze
2:53 PM 37.9 °F 29.2 °F 30.9 °F 76% 30.15 in 6.0 mi SW 15.0 mph - N/A   Haze
3:53 PM 37.9 °F 29.6 °F 32.0 °F 79% 30.16 in 6.0 mi SW 13.8 mph - N/A   Haze
4:53 PM 37.9 °F 29.6 °F 32.0 °F 79% 30.17 in 7.0 mi SW 13.8 mph - N/A   Clear
5:53 PM 36.0 °F 29.0 °F 30.9 °F 82% 30.16 in 7.0 mi SW 9.2 mph - N/A   Clear
6:53 PM 36.0 °F 29.6 °F 30.9 °F 82% 30.18 in 6.0 mi SSW 8.1 mph - N/A   Haze
7:53 PM 35.1 °F 28.6 °F 30.9 °F 85% 30.19 in 6.0 mi SW 8.1 mph - N/A   Clear
8:53 PM 35.1 °F 26.9 °F 30.9 °F 85% 30.19 in 6.0 mi SW 11.5 mph - N/A   Clear
9:53 PM 35.1 °F 26.9 °F 30.9 °F 85% 30.19 in 7.0 mi SW 11.5 mph - N/A   Clear
10:53 PM 35.1 °F 26.9 °F 30.9 °F 85% 30.21 in 6.0 mi SW 11.5 mph - N/A   Clear